SCP
-0 -0 -0 -0 -0 -0 -0 -0 -0 -0 -0 -0 -0 -0 -0 -0 -0 -0 -0 0 0 0
-0 -0 -0 -0 -0 -0 -0 -0 -0 -0 -0 -0 -0 -0 -0 -0 -0 -0 -0 0 0 0
-0 -0 -0 -0 -0 -0 -0 -0 -0 -0 -0 -0 -0 -0 -0 -0 -0 -0 -0 -0 0 0
0 0 -0 -0 -0 -0 -0 -0 -0 0 0 0 0 0 0 -0 -0 -0 -0 -0 -0 0
0 0 0 0 -0 -0 -0 -0 -0 0 0 0 0 0 0 0 -0 -0 -0 -0 0 0
0 0 0 0 0 0 0 0 0 0 0 0 0 0 0 0 0 -0 -0 -0 -0 0
0 0 0 0 0 0 0 0 0 0 0 0 0 0 0 0 0 0 0 0 -0 -0
0 0 0 0 0 0 0 0 0 0 0 0 0 0 0 0 0 0 0 0 0 0
0 0 0 0 0 0 0 0 0 0 0 0 0 0 0 0 0 0 0 0 0 0
0 0 0 0 0 0 0 0 0 0 0 0 0 0 0 0 0 0 0 0 0 0
0 0 0 0 0 0 0 0 0 0 0 0 0 0 0 0 0 0 0 0 0 0
0 0 0 0 0 0 0 0 0 0 0 0 0 0 0 0 0 0 0 0 0 0
0 0 0 0 0 0 0 0 0 0 0 0 0 0 0 0 0 0 0 0 0 0
0 0 0 0 0 0 0 0 0 0 0 0 -0 0 0 0 0 0 0 0 0 0
Wind_Speed_500mb
70 72 73 74 76 78 78 78 76 76 73 68 65 68 68 67 68 69 65 59 56 58
68 70 72 72 74 79 79 80 80 78 77 74 70 67 68 70 69 68 69 66 62 60
73 68 70 75 79 81 78 78 79 81 81 77 72 70 69 68 65 67 66 67 66 64
74 69 72 77 83 80 79 79 79 79 80 78 75 71 70 68 65 64 65 64 67 66
77 73 72 81 85 78 80 81 84 83 80 77 73 71 70 70 66 64 64 64 67 67
79 75 79 87 81 80 83 85 84 83 81 76 72 69 66 66 67 66 66 66 66 67
77 76 84 82 81 85 83 86 87 84 81 74 70 67 64 64 65 65 67 68 67 68
72 76 82 80 84 83 87 91 90 85 78 73 68 63 62 65 66 66 69 69 68 68
71 80 78 82 81 84 88 91 88 81 76 73 67 59 58 63 67 65 69 74 72 69
71 78 81 75 78 83 88 90 86 81 73 71 67 59 60 62 65 65 66 70 72 75
73 79 73 71 76 83 87 87 84 80 72 70 66 60 61 63 65 63 64 67 71 70
73 74 68 71 76 82 88 88 82 78 74 70 68 62 60 61 64 63 67 67 69 70
71 65 66 71 76 83 87 89 83 79 71 68 69 61 58 57 55 65 68 70 76 76
63 61 65 73 78 85 90 92 83 78 71 66 64 62 61 51 54 58 66 74 81 78
Wind_Direction_500mb
351 350 348 346 343 339 336 334 333 333 331 330 328 328 330 331 333 331 326 321 315 313
347 344 342 340 339 336 333 330 329 328 327 325 324 324 324 324 325 325 325 321 318 313
343 340 337 336 336 334 330 327 325 324 324 323 322 322 322 322 320 319 321 319 316 314
339 336 334 333 332 330 328 327 325 322 320 319 319 320 321 320 318 315 315 317 316 312
334 332 328 328 328 327 325 324 323 322 320 317 315 317 318 317 316 314 312 313 311 311
329 327 325 326 326 324 322 321 321 321 318 316 314 315 316 314 312 311 312 312 309 308
323 323 323 322 321 320 320 320 320 318 317 314 312 315 317 313 311 310 310 310 308 306
316 318 320 319 318 318 319 318 316 314 313 312 311 315 317 313 311 310 310 311 309 307
313 317 319 318 318 319 320 319 317 313 310 309 309 314 314 314 311 310 311 311 311 307
311 315 317 317 319 322 322 321 318 313 310 308 308 314 313 311 309 309 310 310 308 308
310 314 314 317 321 323 323 322 319 315 312 309 311 315 313 309 308 307 308 309 309 306
311 312 312 318 322 325 324 322 318 315 314 312 313 315 313 310 309 308 308 311 310 306
310 309 313 318 322 323 324 321 318 314 313 312 313 315 313 313 313 308 311 310 311 312
307 309 314 316 320 322 323 320 317 314 313 313 314 317 316 319 313 311 310 308 312 315
Wind_Speed_850mb
70 72 73 74 76 78 78 78 76 76 73 68 65 68 68 67 68 69 65 59 56 58
68 70 72 72 74 79 79 80 80 78 77 74 70 67 68 70 69 68 69 66 62 60
73 68 70 75 79 81 78 78 79 81 81 77 72 70 69 68 65 67 66 67 66 64
74 69 72 77 83 80 79 79 79 79 80 78 75 71 70 68 65 64 65 64 67 66
77 73 72 81 85 78 80 81 84 83 80 77 73 71 70 70 66 64 64 64 67 67
79 75 79 87 81 80 83 85 84 83 81 76 72 69 66 66 67 66 66 66 66 67
77 76 84 82 81 85 83 86 87 84 81 74 70 67 64 64 65 65 67 68 67 68
72 76 82 80 84 83 87 91 90 85 78 73 68 63 62 65 66 66 69 69 68 68
71 80 78 82 81 84 88 91 88 81 76 73 67 59 58 63 67 65 69 74 72 69
71 78 81 75 78 83 88 90 86 81 73 71 67 59 60 62 65 65 66 70 72 75
73 79 73 71 76 83 87 87 84 80 72 70 66 60 61 63 65 63 64 67 71 70
73 74 68 71 76 82 88 88 82 78 74 70 68 62 60 61 64 63 67 67 69 70
71 65 66 71 76 83 87 89 83 79 71 68 69 61 58 57 55 65 68 70 76 76
63 61 65 73 78 85 90 92 83 78 71 66 64 62 61 51 54 58 66 74 81 78
Wind_Direction_850mb
351 350 348 346 343 339 336 334 333 333 331 330 328 328 330 331 333 331 326 321 315 313
347 344 342 340 339 336 333 330 329 328 327 325 324 324 324 324 325 325 325 321 318 313
343 340 337 336 336 334 330 327 325 324 324 323 322 322 322 322 320 319 321 319 316 314
339 336 334 333 332 330 328 327 325 322 320 319 319 320 321 320 318 315 315 317 316 312
334 332 328 328 328 327 325 324 323 322 320 317 315 317 318 317 316 314 312 313 311 311
329 327 325 326 326 324 322 321 321 321 318 316 314 315 316 314 312 311 312 312 309 308
323 323 323 322 321 320 320 320 320 318 317 314 312 315 317 313 311 310 310 310 308 306
316 318 320 319 318 318 319 318 316 314 313 312 311 315 317 313 311 310 310 311 309 307
313 317 319 318 318 319 320 319 317 313 310 309 309 314 314 314 311 310 311 311 311 307
311 315 317 317 319 322 322 321 318 313 310 308 308 314 313 311 309 309 310 310 308 308
310 314 314 317 321 323 323 322 319 315 312 309 311 315 313 309 308 307 308 309 309 306
311 312 312 318 322 325 324 322 318 315 314 312 313 315 313 310 309 308 308 311 310 306
310 309 313 318 322 323 324 321 318 314 313 312 313 315 313 313 313 308 311 310 311 312
307 309 314 316 320 322 323 320 317 314 313 313 314 317 316 319 313 311 310 308 312 315